This is the latest recevied weather packets stored in our database for station/object HS5SQI-1. If no packets are shown the sender has not sent any weather packets the latest 10 day(s).
| Time | Temp. | Humidity | Pressure | Rain* | Wind** | Luminosity | Snow |
|---|---|---|---|---|---|---|---|
| 1777816826 | 27.78° C | 99% | 965 hPa | - | - | 0 W/m² | - |
| 1777816204 | 28.89° C | 99% | 964 hPa | - | - | 0 W/m² | - |
| 1777815582 | 28.89° C | 99% | 964 hPa | - | - | 0 W/m² | - |
| 1777814960 | 28.33° C | 99% | 964 hPa | - | - | 0 W/m² | - |
| 1777814338 | 28.89° C | 99% | 964 hPa | - | - | 0 W/m² | - |
| 1777813716 | 28.89° C | 99% | 963 hPa | - | - | 0 W/m² | - |
| 1777813094 | 29.44° C | 99% | 963 hPa | - | - | 0 W/m² | - |
| 1777812472 | 30° C | 99% | 963 hPa | - | - | 0 W/m² | - |
| 1777811850 | 30° C | 99% | 963 hPa | - | - | 0 W/m² | - |
| 1777811228 | 30° C | 99% | 963 hPa | - | - | 0 W/m² | - |
| 1777810606 | 30° C | 99% | 963 hPa | - | - | 0 W/m² | - |
| 1777809984 | 29.44° C | 99% | 963 hPa | - | - | 0 W/m² | - |
| 1777809362 | 29.44° C | 99% | 962 hPa | - | - | 0 W/m² | - |
| 1777808740 | 30° C | 87% | 962 hPa | - | - | 0 W/m² | - |
| 1777808118 | 30.56° C | 75% | 962 hPa | - | - | 0 W/m² | - |
| 1777807496 | 32.22° C | 58% | 962 hPa | - | - | 0 W/m² | - |
| 1777806874 | 33.33° C | 55% | 963 hPa | - | - | 0 W/m² | - |
| 1777806252 | 34.44° C | 58% | 962 hPa | - | - | 0 W/m² | - |
| 1777805630 | 34.44° C | 63% | 962 hPa | - | - | 0 W/m² | - |
| 1777805008 | 34.44° C | 63% | 962 hPa | - | - | 0 W/m² | - |
| 1777804386 | 34.44° C | 60% | 962 hPa | - | - | 0 W/m² | - |
| 1777803764 | 34.44° C | 55% | 961 hPa | - | - | 0 W/m² | - |
| 1777803142 | 35° C | 55% | 961 hPa | - | - | 0 W/m² | - |
| 1777802520 | 35° C | 52% | 961 hPa | - | - | 0 W/m² | - |
| 1777801898 | 36.11° C | 48% | 961 hPa | - | - | 0 W/m² | - |
* Rain since midnight (hover to see other rain measurements)
** Current wind speed in m/s (hover to see current wind gust speed)